Montreal, Quebec

5:24 PM EDT on April 27, 2017 (GMT -0400)
Montreal-Pierre Elliott Trudeau Int'l Airport

Weather History for CYUL - February, 2013

Change the Weather History Date:

Sunday, February 24, 2013

  Actual Average Record
Temperature  
Mean Temperature 33 °F -  
Max Temperature 34 °F 34 °F 39 °F (2017)
Min Temperature 32 °F 18 °F -13 °F (2015)
Degree Days  
Heating Degree Days 32    
Moisture  
Dew Point 31 °F    
Average Humidity 93    
Maximum Humidity 100    
Minimum Humidity 81    
Precipitation  
Precipitation 0.02 in 0.09 in - ()
Sea Level Pressure  
Sea Level Pressure 29.86 in    
Wind  
Wind Speed 3 mph ()    
Max Wind Speed 7 mph    
Max Gust Speed -    
Visibility 6.3 miles    
Events Snow    
Averages and records for this station are not official NWS values.
T = Trace of Precipitation, MM = Missing Value Source: Averaged Metar Reports

Daily Weather History Graph

Daily Weather History Graph

Search for Another Location

Airport or City:

Trip Planner

Search our weather history database for the weather conditions in past years. The results will help you decide how hot, cold, wet, or windy it might be!

Date:

Astronomy

Feb. 24, 2013 Rise Set
Actual Time 6:41 AM EST 5:35 PM EST
Civil Twilight 6:11 AM EST 6:05 PM EST
Nautical Twilight 5:37 AM EST 6:39 PM EST
Astronomical Twilight 5:03 AM EST 7:13 PM EST
Moon 4:43 PM EST (2/24) 5:38 AM EST (2/24)
Length of Visible Light 11h 53m
Length of Day
10h 53m
Waxing Gibbous, 99% of the Moon is Illuminated
Feb 24
Waxing Gibbous
Feb 25
Full
Mar 4
Last Quarter
Mar 11
New
Mar 19
First Quarter

Hourly Weather History & Observations

Time (EST) Temp. Windchill Dew Point Humidity Pressure Visibility Wind Dir Wind Speed Gust Speed Precip Events Conditions
12:00 AM 33.8 °F 29.6 °F 32.0 °F 93% 29.88 in 15.0 mi SSE 4.6 mph - N/A Snow Light Snow
12:24 AM 33.8 °F 30.8 °F 32.0 °F 93% 29.87 in 12.0 mi SE 3.5 mph - N/A Snow Light Snow
1:00 AM 33 °F - 32 °F 94% 29.86 in 12 mi Calm Calm - - Snow Light Snow
1:00 AM 32.0 °F - 32.0 °F 100% 29.86 in 12.0 mi SE 2.3 mph - N/A Snow Light Snow
1:30 AM 33.8 °F 29.6 °F 32.0 °F 93% 29.86 in 10.0 mi South 4.6 mph - N/A Snow Light Snow
2:00 AM 32.0 °F - 32.0 °F 100% 29.85 in 8.0 mi Calm Calm - N/A Snow Light Snow
3:00 AM 32.0 °F - 32.0 °F 100% 29.84 in 10.0 mi South 2.3 mph - N/A Snow Light Snow
4:00 AM 32.0 °F 28.7 °F 32.0 °F 100% 29.83 in 60.0 mi SSE 3.5 mph - N/A Snow Light Snow
5:00 AM 32.0 °F - 32.0 °F 100% 29.83 in 5.0 mi Calm Calm - N/A Snow Light Snow
6:00 AM 32.0 °F 28.7 °F 32.0 °F 100% 29.84 in 4.0 mi SW 3.5 mph - N/A Snow Light Snow
7:00 AM 32 °F - 32 °F 100% 29.85 in 1 mi SW 3.5 mph - - Snow Light Snow
7:00 AM 32.0 °F 28.7 °F 32.0 °F 100% 29.84 in 1.2 mi SW 3.5 mph - N/A Snow Light Snow
7:23 AM 32.0 °F - 32.0 °F 100% 29.84 in 1.5 mi WSW 2.3 mph - N/A Snow Light Snow
7:42 AM 32.0 °F 28.7 °F 32.0 °F 100% 29.84 in 1.2 mi WSW 3.5 mph - N/A Snow Light Snow
8:00 AM 32.0 °F 27.5 °F 32.0 °F 100% 29.84 in 1.0 mi SW 4.6 mph - N/A Snow Light Snow
8:11 AM 32.0 °F 26.4 °F 32.0 °F 100% 29.84 in 1.5 mi WSW 5.8 mph - N/A Snow Light Snow
8:30 AM 32.0 °F 25.6 °F 32.0 °F 100% 29.84 in 2.2 mi West 6.9 mph - N/A Snow Light Snow
9:00 AM 32.0 °F 27.5 °F 32.0 °F 100% 29.84 in 3.0 mi West 4.6 mph - N/A Snow Light Snow
10:00 AM 32.0 °F 28.7 °F 30.2 °F 93% 29.84 in 3.0 mi NW 3.5 mph - N/A Snow Light Snow
11:00 AM 33.8 °F 29.6 °F 30.2 °F 87% 29.83 in 3.0 mi WNW 4.6 mph - N/A Snow Light Snow
12:00 PM 33.8 °F 30.8 °F 30.2 °F 87% 29.83 in 4.0 mi NNW 3.5 mph - N/A Snow Light Snow
12:07 PM 33.8 °F 30.8 °F 30.2 °F 87% 29.83 in 4.0 mi NW 3.5 mph - N/A Snow Light Snow
12:25 PM 33.8 °F 29.6 °F 30.2 °F 87% 29.83 in 5.0 mi NW 4.6 mph - N/A Snow Light Snow
1:00 PM 33 °F - 31 °F 87% 29.83 in 6 mi NNW 3.5 mph - - Snow Light Snow
1:00 PM 33.8 °F 30.8 °F 30.2 °F 87% 29.83 in 6.0 mi NW 3.5 mph - N/A Snow Light Snow
2:00 PM 33.8 °F 29.6 °F 30.2 °F 87% 29.83 in 6.0 mi NNW 4.6 mph - N/A Snow Light Snow
3:00 PM 33.8 °F 30.8 °F 30.2 °F 87% 29.84 in 4.0 mi NW 3.5 mph - N/A Snow Light Snow
4:00 PM 33.8 °F 30.8 °F 32.0 °F 93% 29.85 in 5.0 mi NW 3.5 mph - N/A Snow Light Snow
5:00 PM 33.8 °F 29.6 °F 32.0 °F 93% 29.86 in 7.0 mi SW 4.6 mph - N/A Snow Light Snow
6:00 PM 33.8 °F 30.8 °F 30.2 °F 87% 29.88 in 7.0 mi WSW 3.5 mph - N/A Snow Light Snow
7:00 PM 33 °F - 30 °F 84% 29.90 in 7 mi West 3.5 mph - - Snow Light Snow
7:00 PM 33.8 °F 30.8 °F 30.2 °F 87% 29.90 in 8.0 mi West 3.5 mph - N/A Snow Light Snow
8:00 PM 33.8 °F 29.6 °F 30.2 °F 87% 29.92 in 10.0 mi West 4.6 mph - N/A Snow Light Snow
9:00 PM 33.8 °F 28.6 °F 30.2 °F 87% 29.94 in 12.0 mi West 5.8 mph - N/A Snow Light Snow
10:00 PM 33.8 °F 27.7 °F 28.4 °F 81% 29.94 in 12.0 mi West 6.9 mph - N/A Snow Light Snow
11:00 PM 33.8 °F 28.6 °F 30.2 °F 87% 29.96 in 10.0 mi West 5.8 mph - N/A Snow Light Snow